PulseSat

PulseSat

GSAT0201 (PRN E18)

Last updated on Jan. 16, 2019, 2:58 a.m. UTC

1 40128U 14050A   19014.25980757 -.00000073  00000-0  00000+0 0  9993
2 40128  50.5399  22.1451 1657752  82.5934 295.9375  1.85519726 29967
UTC
Height (km)
Latitude
Longitude
Inclination
Orbital Period

Next 30 passes for location: Hong Kong

Rise time Rise Azimuth (degrees) Set time Set Azimuth (degrees) Duration Max altitude (degrees)

No matching passes for this satellites

PulseSat

PulseSat is the new satellites software and hardware trackering solution by Pulsely.
Satellite Two Line Element Set source: US Air Force Space Command

Download PulseSat for iOS
© 2017 Pulsely Limited